Ardmore, OK

2:07 AM CST on February 12, 2016 (GMT -0600)
Ardmore Downtown

Weather History for K1F0 - October, 2012

Change the Weather History Date:

Saturday, October 20, 2012

  Actual Average (KSPS) Record (KSPS)
Temperature  
Mean Temperature 76 °F 63 °F  
Max Temperature 82 °F 76 °F 94 °F (2007)
Min Temperature 71 °F 51 °F 29 °F (1989)
Degree Days  
Heating Degree Days 0 4  
Month to date heating degree days 51  
Since 1 July heating degree days 64  
Cooling Degree Days 12 2  
Month to date cooling degree days 79  
Year to date cooling degree days 2358  
Growing Degree Days 26 (Base 50)    
Moisture  
Dew Point 59 °F    
Average Humidity 56    
Maximum Humidity 73    
Minimum Humidity 39    
Precipitation  
Precipitation 0.00 in 0.11 in 1.83 in (1983)
Month to date precipitation 2.01  
Year to date precipitation 24.55  
Snow  
Snow 0.00 in 0.00 in - ()
Month to date snowfall 0.0  
Since 1 July snowfall 0.0  
Snow Depth -    
Sea Level Pressure  
Sea Level Pressure 29.73 in    
Wind  
Wind Speed 9 mph (South)    
Max Wind Speed 14 mph    
Max Gust Speed 21 mph    
Visibility 10 miles    
Events      
T = Trace of Precipitation, MM = Missing Value Source: NWS Daily Summary

Daily Weather History Graph

Daily Weather History Graph

Search for Another Location

Airport or City:

Trip Planner

Search our weather history database for the weather conditions in past years. The results will help you decide how hot, cold, wet, or windy it might be!

Date:

Astronomy

Oct. 20, 2012 Rise Set
Actual Time 7:38 AM CDT 6:47 PM CDT
Civil Twilight 7:12 AM CDT 7:13 PM CDT
Nautical Twilight 6:43 AM CDT 7:42 PM CDT
Astronomical Twilight 6:14 AM CDT 8:11 PM CDT
Moon 1:07 PM CDT (10/20) 11:41 PM CDT (10/20)
Length of Visible Light 12h 00m
Length of Day
11h 09m
Waxing Crescent, 34% of the Moon is Illuminated
Oct 20
Waxing Crescent
Oct 21
First Quarter
Oct 29
Full
Nov 6
Last Quarter
Nov 13
New

Hourly Weather History & Observations

Time (CDT) Temp. Heat Index Dew Point Humidity Pressure Visibility Wind Dir Wind Speed Gust Speed Precip Events Conditions
12:35 PM 77.0 °F - 51.8 °F 41% 29.80 in 10.0 mi SSW 5.8 mph - N/A   Unknown
12:55 PM 78.8 °F - 51.8 °F 39% 29.79 in 10.0 mi SSW 10.4 mph 16.1 mph N/A   Clear
1:15 PM 80.6 °F 80.3 °F 53.6 °F 39% 29.77 in 10.0 mi South 12.7 mph - N/A   Clear
1:35 PM 80.6 °F 80.3 °F 53.6 °F 39% 29.76 in 10.0 mi SSW 10.4 mph 18.4 mph N/A   Clear
1:55 PM 80.6 °F 80.3 °F 53.6 °F 39% 29.75 in 10.0 mi SSW 12.7 mph 18.4 mph N/A   Clear
2:15 PM 82.4 °F 81.7 °F 55.4 °F 39% 29.74 in 10.0 mi SSW 10.4 mph 17.3 mph N/A   Clear
2:35 PM 82.4 °F 81.7 °F 55.4 °F 39% 29.73 in 10.0 mi South 13.8 mph 20.7 mph N/A   Clear
2:55 PM 82.4 °F 81.7 °F 55.4 °F 39% 29.73 in 10.0 mi SSW 13.8 mph 20.7 mph N/A   Clear
3:35 PM 82.4 °F 82.0 °F 57.2 °F 42% 29.71 in 10.0 mi South 12.7 mph 19.6 mph N/A   Clear
3:55 PM 82.4 °F 82.5 °F 59.0 °F 45% 29.71 in 10.0 mi South 10.4 mph 17.3 mph N/A   Clear
4:15 PM 82.4 °F 82.9 °F 60.8 °F 48% 29.71 in 10.0 mi South 11.5 mph 17.3 mph N/A   Clear
4:35 PM 82.4 °F 82.9 °F 60.8 °F 48% 29.71 in 10.0 mi SSW 10.4 mph - N/A   Scattered Clouds
4:55 PM 82.4 °F 82.9 °F 60.8 °F 48% 29.71 in 10.0 mi SSW 10.4 mph 20.7 mph N/A   Scattered Clouds
5:35 PM 82.4 °F 82.5 °F 59.0 °F 45% 29.71 in 10.0 mi South 9.2 mph 17.3 mph N/A   Clear
5:55 PM 82.4 °F 82.5 °F 59.0 °F 45% 29.71 in 10.0 mi SSW 9.2 mph - N/A   Clear
6:15 PM 80.6 °F 81.1 °F 59.0 °F 48% 29.71 in 10.0 mi SSW 6.9 mph - N/A   Clear
6:35 PM 80.6 °F 81.5 °F 60.8 °F 51% 29.71 in 10.0 mi South 4.6 mph - N/A   Clear
6:55 PM 77.0 °F - 60.8 °F 57% 29.71 in 10.0 mi South 3.5 mph - N/A   Clear
7:15 PM 75.2 °F - 60.8 °F 61% 29.72 in 10.0 mi South 3.5 mph - N/A   Clear
7:35 PM 73.4 °F - 62.6 °F 69% 29.72 in 10.0 mi Calm Calm - N/A   Clear
7:55 PM 71.6 °F - 62.6 °F 73% 29.73 in 10.0 mi South 3.5 mph - N/A   Clear
8:15 PM 71.6 °F - 62.6 °F 73% 29.73 in 10.0 mi South 4.6 mph - N/A   Clear
8:35 PM 73.4 °F - 62.6 °F 69% 29.73 in 10.0 mi South 6.9 mph - N/A   Clear
8:55 PM 73.4 °F - 62.6 °F 69% 29.73 in 10.0 mi South 6.9 mph - N/A   Clear
9:35 PM 73.4 °F - 62.6 °F 69% 29.74 in 10.0 mi South 6.9 mph - N/A   Unknown
9:55 PM 73.4 °F - 62.6 °F 69% 29.74 in 10.0 mi South 6.9 mph - N/A   Clear
10:15 PM 71.6 °F - 62.6 °F 73% 29.74 in 10.0 mi South 6.9 mph - N/A   Clear
10:35 PM 71.6 °F - 62.6 °F 73% 29.75 in 10.0 mi South 6.9 mph - N/A   Clear
10:55 PM 71.6 °F - 62.6 °F 73% 29.75 in 10.0 mi South 6.9 mph - N/A   Clear
11:15 PM 71.6 °F - 62.6 °F 73% 29.75 in 10.0 mi South 8.1 mph - N/A   Clear
11:35 PM 71.6 °F - 62.6 °F 73% 29.75 in 10.0 mi South 5.8 mph - N/A   Clear
11:55 PM 71.6 °F - 62.6 °F 73% 29.75 in 10.0 mi South 5.8 mph - N/A   Clear